Theta_e
304 296 294 293 297 299 301 300 299 300 299 299 298 297 295 294 295 299 299 301 303 298 296 297 297 297 298 299 300 302 302 302 302 302 302 304 304 305 306 307 308 307 306 311 312 312 310 311 311 312 311 309 309 308 307 307 309 310 311 312 311 312 313 313 314 316 316 316 316 317 316 316 317 317 318 317 318 318 317 317 315 313 312 312 310 310
301 295 296 299 300 301 302 302 301 300 300 297 296 295 294 295 293 298 298 302 303 297 296 297 296 296 297 299 300 302 301 300 301 302 303 303 305 306 307 306 306 306 309 312 310 308 310 308 309 308 309 308 307 307 307 307 308 309 309 309 311 311 311 311 312 314 315 316 315 315 315 315 316 315 315 315 315 316 316 315 314 312 311 311 309 308
295 293 298 301 302 303 302 300 300 297 296 297 294 295 294 295 298 299 300 301 300 296 294 296 294 295 297 299 301 301 301 302 303 304 304 304 305 306 305 306 306 306 307 307 306 308 307 308 308 308 308 307 306 306 306 307 307 308 309 309 309 310 310 310 310 311 312 314 315 315 314 315 314 316 316 315 315 315 314 313 312 311 310 310 308 307
294 298 300 302 302 301 300 300 298 297 297 295 294 293 292 297 295 292 299 297 298 296 294 296 293 295 298 300 301 303 303 303 305 305 306 306 305 304 304 304 305 305 305 304 305 304 305 305 305 305 304 305 305 306 306 305 305 306 307 308 308 309 309 309 309 309 311 312 313 314 314 313 313 312 313 313 313 312 311 310 310 310 310 309 307 307
297 301 302 302 301 300 298 299 297 295 294 298 297 295 294 295 296 296 295 298 298 298 299 296 294 296 300 299 299 302 303 303 305 306 306 306 306 306 307 306 306 305 304 303 303 303 304 304 303 303 303 304 304 304 304 304 304 305 305 306 307 308 308 308 308 308 308 310 310 311 310 309 309 309 307 307 307 308 308 308 308 308 309 308 307 307
297 302 301 299 299 299 298 295 297 297 293 295 299 298 297 297 296 296 296 294 293 292 294 293 289 291 297 298 299 302 303 303 305 304 303 303 304 304 303 303 305 305 303 302 302 302 302 302 302 301 302 302 302 302 303 304 304 305 305 305 306 307 307 307 307 308 307 307 307 306 305 304 304 304 304 304 304 305 305 305 307 308 307 307 307 306
298 300 300 299 299 298 297 295 297 298 293 292 295 299 298 297 296 295 294 294 288 287 294 296 287 285 296 296 299 300 301 302 304 303 302 302 302 302 302 301 301 301 302 302 301 300 300 300 300 300 300 300 300 301 303 303 303 303 304 305 305 305 306 307 306 307 306 306 306 305 305 305 304 304 305 307 307 306 307 307 306 306 306 306 306 305
298 298 297 297 296 296 296 294 298 297 294 292 297 298 297 296 294 294 294 293 290 295 296 295 293 287 288 295 301 300 299 301 299 299 299 300 300 300 299 300 300 300 300 299 299 299 299 299 299 298 299 299 299 300 301 302 303 303 302 302 303 304 304 305 305 305 306 304 305 305 305 304 304 304 304 305 305 306 305 305 304 305 304 304 305 304
297 296 296 296 296 295 294 297 302 300 295 295 296 297 295 294 294 294 293 291 292 290 287 292 294 288 289 297 300 300 297 298 295 297 298 298 298 298 298 299 299 299 298 298 297 297 297 297 298 298 298 299 300 300 300 300 301 302 302 301 302 301 302 303 304 304 305 304 304 304 304 304 305 305 304 304 305 304 304 303 303 303 303 303 303 303
297 296 298 298 296 293 298 298 298 299 294 299 296 297 296 296 295 295 291 291 291 288 285 290 293 287 289 297 298 297 296 295 295 296 297 297 297 297 298 298 297 297 297 297 297 297 296 297 297 298 299 298 299 299 300 300 300 300 301 300 300 300 301 301 302 303 303 304 304 303 303 303 303 304 304 304 303 303 304 302 302 302 301 301 301 301
296 296 297 296 295 298 297 294 296 297 297 296 297 295 295 295 294 294 293 291 288 284 287 293 293 292 286 295 297 296 295 297 296 296 297 297 297 297 297 296 296 296 296 296 296 296 296 297 297 297 296 297 298 298 299 299 300 300 300 299 299 299 300 300 301 301 301 303 303 303 303 302 302 303 303 302 302 303 303 302 302 301 301 301 300 300
297 296 294 298 299 298 298 297 294 296 296 296 293 292 291 291 293 290 289 290 284 284 291 294 294 294 284 292 297 298 299 298 298 295 295 295 294 294 294 294 294 294 294 294 294 294 295 295 295 295 295 295 296 296 297 298 299 299 299 299 298 298 298 299 300 300 300 301 301 302 302 302 302 302 301 301 301 301 301 302 301 302 301 300 301 300
294 295 298 299 297 297 296 294 295 295 295 294 292 291 286 285 288 285 287 281 284 284 288 291 293 289 289 293 299 301 297 296 297 297 296 294 293 293 293 292 293 293 293 292 292 292 293 293 293 293 294 294 294 294 295 296 297 298 298 298 297 297 298 298 299 299 299 299 299 299 300 300 300 301 301 301 301 301 301 301 301 301 300 300 300 299
294 300 298 298 297 297 298 292 292 291 292 292 290 289 286 283 284 281 285 288 287 289 290 290 293 287 293 295 300 299 296 296 296 295 295 293 292 292 292 293 292 292 292 291 290 290 290 291 292 292 293 293 293 293 294 294 295 296 296 297 296 297 298 298 298 298 298 298 298 299 299 299 299 299 299 300 299 300 300 301 300 300 300 300 300 300
286 288 295 296 293 298 296 296 296 295 293 292 296 293 288 287 283 279 283 281 283 285 289 292 287 286 286 292 295 295 295 295 295 294 294 293 293 292 292 292 292 291 291 291 290 289 289 290 290 290 291 292 292 292 293 293 294 294 294 295 295 295 296 297 297 298 297 297 298 298 298 298 298 298 298 298 299 299 299 299 299 299 300 299 299 299
290 290 297 300 299 297 296 299 297 294 290 290 291 291 286 286 292 283 285 284 284 285 284 287 286 292 292 299 296 296 294 294 293 293 292 291 292 292 291 291 290 290 290 291 290 290 289 289 289 290 290 291 291 291 292 292 293 293 293 294 294 294 295 296 296 297 297 297 298 298 297 297 297 298 298 298 298 298 299 298 298 299 299 299 299 300
292 288 299 296 296 297 297 296 296 298 286 289 289 286 289 296 292 286 286 287 286 284 280 289 288 292 298 299 297 294 293 291 292 291 291 290 290 290 289 289 289 289 289 289 289 289 289 289 289 290 290 290 290 290 290 291 292 292 292 292 292 293 294 294 295 295 296 296 296 297 297 297 297 297 296 296 297 297 298 298 298 298 298 299 299 299
287 288 300 297 293 297 298 298 298 298 298 290 286 291 294 296 295 289 280 284 282 279 281 287 284 287 289 285 296 293 291 290 289 289 289 289 289 288 287 287 288 288 288 289 289 289 289 289 289 289 290 289 289 290 291 291 292 292 292 292 292 292 292 293 294 294 294 295 295 295 296 296 296 296 296 296 296 296 296 297 297 298 297 297 298 298
297 287 293 298 298 298 296 296 293 296 298 293 291 295 289 284 283 287 284 277 277 277 280 285 288 288 289 290 294 291 290 289 288 288 287 287 287 286 286 286 286 287 287 287 287 287 287 287 287 288 288 289 290 290 290 291 291 291 291 291 291 291 291 292 293 293 294 294 294 294 294 294 295 295 295 295 296 296 295 295 295 296 296 297 297 297
297 286 288 297 297 297 296 295 287 292 293 294 295 291 296 289 286 284 285 285 285 278 280 280 285 283 293 293 295 292 291 290 289 288 287 287 287 287 287 287 287 287 287 288 287 287 287 287 287 287 288 288 289 289 290 290 290 289 290 290 290 290 291 291 291 291 292 293 293 293 292 293 293 293 293 294 294 294 294 294 294 294 294 295 295 295
291 295 283 292 293 295 289 293 290 292 289 287 288 287 290 288 291 290 288 286 283 281 281 280 279 285 293 293 293 291 291 291 291 289 289 288 288 288 288 289 288 288 288 288 289 288 288 288 288 288 289 289 289 290 290 290 290 290 290 289 289 289 289 289 290 290 291 291 291 291 290 291 291 291 292 292 292 292 293 293 293 293 293 294 293 294
290 291 285 289 289 289 290 296 297 295 294 292 290 288 290 287 284 280 279 290 286 284 280 280 278 287 291 292 293 291 291 291 291 290 289 289 289 289 289 288 289 288 288 288 289 289 289 289 289 289 290 290 289 289 288 290 290 290 290 290 290 289 289 289 289 289 290 290 290 289 289 290 290 291 291 290 291 291 291 291 292 292 292 292 293 293
292 288 288 286 288 290 294 298 298 297 296 294 292 290 292 290 289 284 278 282 286 286 287 285 281 284 289 290 291 290 291 290 291 291 289 289 289 288 288 288 288 288 288 288 289 289 289 290 289 289 289 289 288 288 288 289 289 289 289 289 289 289 288 289 289 289 289 289 289 289 289 289 289 289 289 289 289 289 290 290 291 291 291 291 292 293
292 286 284 286 290 293 295 298 296 295 293 291 292 290 289 287 290 287 285 285 282 284 282 282 279 283 288 288 289 290 290 291 291 291 289 289 288 288 287 286 286 286 287 287 287 288 288 288 288 288 288 288 288 287 287 288 288 288 288 289 289 289 289 289 289 289 289 289 289 289 288 288 288 288 288 287 288 288 289 289 290 290 291 291 291 291
288 287 287 281 282 284 287 292 291 293 293 290 289 291 291 291 289 287 286 287 280 282 283 280 275 283 286 286 288 289 290 289 289 289 289 288 288 287 286 286 285 285 286 286 286 287 287 288 287 287 287 287 287 287 287 287 288 288 288 288 288 289 289 289 289 289 288 288 288 288 288 287 288 287 287 287 288 288 288 289 289 289 289 290 290 290
289 287 285 278 276 274 274 277 281 283 287 290 287 288 290 290 289 286 281 284 279 283 284 280 280 286 285 287 288 288 288 287 287 287 286 288 287 286 286 285 285 286 285 286 286 286 286 286 287 286 286 287 287 287 287 287 287 287 288 288 289 288 289 289 289 289 288 288 287 287 287 287 287 287 287 287 287 287 288 288 288 288 288 288 288 288
288 289 288 285 282 280 282 285 290 290 288 284 287 288 288 291 291 289 287 282 278 282 281 283 283 284 286 288 287 284 286 286 285 284 284 285 285 285 286 286 286 286 286 285 286 286 286 285 285 286 287 287 287 287 287 287 287 287 287 288 288 289 289 289 289 289 288 288 287 287 287 287 287 287 287 287 287 287 287 287 287 287 287 288 288 288
287 284 286 285 285 285 287 287 288 289 285 286 285 285 288 288 288 286 283 280 286 281 277 284 286 284 285 288 290 288 287 287 287 286 286 286 285 286 286 286 288 286 286 286 285 285 285 285 286 286 287 287 287 288 288 288 288 287 287 287 288 289 289 290 289 288 288 287 287 287 287 287 287 288 288 288 287 287 287 287 287 286 287 287 287 287
285 281 284 285 283 286 288 288 288 287 287 287 286 286 285 287 286 284 284 286 285 280 277 283 285 283 285 287 288 289 290 287 287 283 284 285 285 285 285 284 284 285 286 285 284 285 285 285 285 286 286 286 287 286 287 287 287 288 288 288 288 289 288 288 288 288 288 287 287 287 287 287 287 288 288 288 287 287 287 286 286 286 286 286 286 286
286 282 284 285 283 285 286 286 287 286 285 285 284 285 286 285 285 285 284 285 285 283 284 284 284 284 286 287 288 286 286 286 285 285 285 284 284 284 284 284 284 285 286 286 286 285 285 286 286 286 286 286 286 286 286 287 287 287 287 288 288 288 289 289 288 287 287 286 286 287 287 287 287 287 287 286 286 286 286 286 286 286 285 285 285 286
287 280 284 280 281 280 283 285 285 284 283 281 283 284 284 284 284 284 284 284 284 283 284 284 283 282 288 287 284 284 284 285 285 284 284 284 284 284 283 283 283 283 284 285 286 286 286 286 286 286 286 286 287 287 287 287 288 288 287 288 288 288 288 288 287 287 286 286 286 286 286 286 286 286 286 286 286 286 285 285 285 285 285 285 284 284
285 280 284 280 277 277 281 281 282 282 281 279 279 280 281 281 279 281 281 284 282 280 282 282 280 280 284 283 284 284 284 283 282 283 283 284 283 283 282 282 283 283 284 284 285 286 286 286 286 286 286 286 286 287 287 287 287 288 287 288 288 288 289 288 287 286 286 286 286 286 286 286 286 285 285 285 285 285 285 285 285 284 284 284 284 284
283 281 279 278 275 274 279 280 279 278 276 274 275 278 280 281 282 283 284 284 283 283 279 277 278 284 283 284 282 282 281 281 281 282 282 282 283 283 282 282 283 283 283 284 284 285 285 286 286 287 286 286 287 287 287 288 287 287 287 287 288 288 287 286 286 286 286 286 285 285 285 285 285 285 285 285 285 285 285 284 284 283 283 283 284 284
282 280 278 280 273 274 278 278 278 274 267 270 282 284 284 281 281 279 279 281 283 283 281 282 281 281 281 280 279 279 280 280 281 283 284 283 282 282 283 283 283 284 284 284 284 284 284 285 286 287 286 286 286 286 287 288 287 287 288 287 287 285 285 285 284 285 284 285 285 285 285 285 285 284 284 284 284 284 284 284 283 283 284 284 284 283
279 279 278 279 275 273 276 275 272 266 268 280 283 285 285 283 282 280 280 282 282 282 282 282 280 281 281 281 280 281 281 282 283 283 283 284 284 283 283 283 283 283 283 283 284 284 284 285 285 285 285 285 285 285 285 285 285 285 285 284 283 283 283 283 283 283 283 283 284 284 284 284 284 284 284 284 284 284 283 283 283 283 283 283 283 282
278 278 278 276 277 276 274 272 265 265 277 276 282 282 285 284 282 281 279 281 282 283 283 282 280 281 281 280 281 281 281 282 283 284 284 285 285 284 283 283 283 283 283 283 283 284 284 284 284 283 283 284 283 283 282 282 282 282 281 282 281 281 281 281 281 281 282 282 282 282 282 282 282 282 282 283 283 283 282 282 282 282 283 283 283 283
282 280 278 274 278 270 272 272 271 277 276 277 278 280 281 278 278 278 273 278 282 282 283 282 280 280 280 280 281 281 282 282 280 282 285 285 286 285 284 283 284 283 284 284 284 284 284 284 283 282 282 281 281 281 281 280 280 279 279 278 278 278 278 279 278 279 279 279 280 280 280 280 281 281 281 281 281 281 281 281 281 281 282 282 282 282
283 278 278 274 272 277 271 270 270 270 266 272 278 280 285 283 282 281 278 273 281 280 283 282 280 279 278 279 280 281 281 278 276 279 283 284 285 284 284 285 284 284 284 284 284 283 283 282 281 281 281 280 280 280 279 278 277 276 275 275 275 275 275 275 275 276 276 276 277 277 277 277 277 277 278 278 278 278 278 279 280 280 281 281 280 280
281 282 279 276 273 274 271 269 267 266 268 277 277 282 283 283 283 281 277 271 280 279 281 280 278 278 278 279 279 280 277 273 275 279 283 283 284 284 283 283 283 284 284 282 281 280 280 280 280 280 279 278 277 277 276 275 274 273 272 272 272 272 272 272 273 274 273 273 274 274 274 275 275 275 275 275 275 276 276 277 277 278 279 279 280 280
275 276 277 273 272 272 271 269 267 272 270 276 278 279 282 283 283 278 267 268 276 278 278 278 276 277 279 280 280 278 276 273 275 279 283 284 284 284 283 282 282 282 281 281 280 280 280 280 279 278 276 276 275 275 274 273 272 271 270 270 270 269 269 270 271 271 271 271 272 272 272 273 272 272 271 270 271 272 273 274 275 276 277 277 278 278
273 274 276 270 272 272 272 269 272 272 277 278 278 281 282 284 279 269 264 273 276 277 279 280 279 279 280 279 280 276 279 280 281 283 284 284 283 282 283 282 281 280 279 279 279 280 278 278 277 275 274 274 274 272 272 271 269 267 267 267 267 267 268 269 269 269 269 268 268 268 268 268 267 266 266 267 267 268 269 270 271 272 273 273 275 275
270 272 273 275 271 270 271 269 269 272 278 279 281 281 283 278 268 268 276 280 279 278 280 280 280 280 280 280 280 280 281 282 283 283 283 283 282 281 281 280 279 279 280 280 279 278 276 275 274 273 273 272 271 270 270 268 266 266 266 265 265 266 267 267 267 266 266 265 265 265 265 265 265 265 264 265 265 265 266 267 269 269 270 271 272 272
272 270 268 270 272 273 271 268 267 263 276 281 281 278 282 273 274 280 281 281 282 281 281 281 281 281 281 280 281 281 281 281 282 282 282 282 280 279 279 278 278 277 277 276 276 275 273 272 271 271 270 270 269 268 267 266 264 264 264 263 265 266 266 265 265 264 264 263 263 263 263 263 262 262 262 262 263 263 263 264 264 265 267 268 269 270
277 271 271 272 275 268 268 266 266 273 278 282 280 274 278 281 283 283 282 280 283 282 281 281 281 282 282 281 281 281 281 281 281 281 281 280 279 279 278 278 278 277 276 276 275 273 271 270 269 268 268 267 267 266 266 264 263 263 262 263 265 265 264 264 263 263 262 262 261 261 261 261 261 261 261 262 262 262 261 262 263 264 265 266 266 267
278 273 275 271 276 273 270 274 278 281 281 282 282 281 282 283 284 283 283 282 281 281 282 281 281 282 282 281 281 280 279 280 280 280 278 277 277 277 277 276 276 275 274 273 272 271 269 268 266 265 265 265 265 265 264 264 262 262 261 263 264 263 263 262 262 261 261 260 260 260 260 261 261 261 261 261 261 261 261 261 262 262 263 264 264 265
280 280 281 278 275 279 280 280 281 280 281 282 283 283 282 283 284 284 283 281 282 282 283 281 282 281 281 280 278 279 279 279 278 277 277 277 276 276 276 275 275 274 273 271 270 269 266 266 264 263 263 263 263 263 263 263 263 261 262 263 263 263 262 262 261 260 260 260 260 260 260 260 260 260 260 261 261 261 261 261 261 261 261 262 262 263
279 280 278 274 277 274 269 279 278 279 281 281 281 283 284 284 283 284 282 282 282 283 282 281 280 280 279 278 277 277 277 277 276 276 276 275 275 275 274 273 272 271 270 268 268 266 264 263 262 261 261 261 262 262 263 262 262 262 263 262 263 262 262 261 260 259 259 259 259 259 259 259 259 259 260 260 261 261 261 261 261 261 261 261 261 261
274 281 276 276 275 273 272 277 279 281 281 282 281 281 281 282 283 283 283 282 282 280 280 279 278 277 277 275 276 275 275 276 275 274 274 274 273 273 272 271 270 269 269 267 266 264 262 262 261 260 260 260 262 262 262 262 262 262 262 262 262 261 261 260 259 259 258 258 259 259 259 258 260 259 259 260 260 260 260 261 261 260 260 260 260 260
278 280 272 275 273 275 278 279 279 280 280 280 281 282 283 283 282 282 281 279 279 277 277 277 277 277 277 276 275 274 273 274 274 273 272 272 271 271 270 269 268 267 266 264 264 263 261 261 260 260 260 260 262 262 262 262 262 262 262 262 261 261 259 259 259 259 258 258 258 258 259 259 259 259 259 259 260 260 260 260 260 260 260 262 262 261
278 274 277 276 272 271 272 275 278 273 274 278 281 282 282 283 283 281 279 278 277 277 276 274 274 274 274 274 273 273 271 272 272 271 270 270 269 269 268 267 266 265 264 264 263 262 261 261 260 260 260 260 261 261 261 261 262 262 262 261 261 260 259 259 258 258 258 258 258 258 258 258 259 259 259 259 259 259 260 263 265 264 262 262 266 268
276 277 277 273 272 272 277 279 280 280 279 280 281 282 281 280 281 280 279 278 278 277 276 274 273 272 272 271 272 270 270 269 269 269 268 267 267 267 266 265 263 263 262 262 261 260 260 260 260 260 260 260 261 261 261 261 261 261 261 261 261 260 259 259 258 258 258 258 258 258 258 258 258 258 258 259 259 259 259 259 261 266 268 268 267 268
Wind_Speed
7 9 9 9 12 12 12 14 18 18 17 18 16 12 15 17 17 15 17 14 13 13 12 14 16 17 16 15 17 17 18 18 19 18 18 17 16 15 12 9 3 6 3 4 5 5 9 10 9 7 7 8 8 8 7 5 3 1 1 2 3 3 5 5 6 6 6 7 6 7 8 7 6 7 7 6 9 11 10 8 7 7 8 8 10 9
2 10 11 12 14 13 15 11 10 12 12 13 14 15 16 14 17 14 16 13 14 13 12 12 16 16 17 18 21 19 16 17 17 17 18 19 17 11 4 7 4 2 1 2 5 10 12 12 12 10 10 13 13 12 12 10 8 6 4 1 0 2 3 4 5 5 5 6 6 6 6 6 6 6 6 7 6 7 6 6 6 6 6 8 8 8
6 11 10 13 13 14 12 7 11 10 14 14 13 12 14 12 14 17 18 10 5 4 12 13 17 15 19 21 19 17 13 11 14 15 18 16 11 5 5 7 7 4 5 9 11 12 13 14 14 12 12 13 13 13 14 11 10 7 5 4 2 1 1 2 3 3 3 4 4 5 4 4 5 4 4 5 5 5 6 6 5 5 6 7 7 7
10 7 15 14 13 13 13 11 11 14 12 11 11 11 13 10 12 12 5 1 4 4 11 14 17 13 18 19 12 7 7 10 11 16 18 6 5 4 6 5 5 9 10 13 13 14 14 14 14 14 14 13 13 13 13 13 12 8 8 7 5 3 2 1 1 2 2 2 2 2 3 2 3 2 2 3 4 5 6 7 7 7 7 9 8 9
13 9 7 5 10 11 13 13 12 9 12 11 13 12 12 14 14 14 13 14 16 14 13 10 12 10 2 3 6 5 6 6 13 14 2 8 5 4 5 8 10 12 13 13 14 15 14 15 16 15 15 14 14 14 14 12 11 8 10 9 7 6 5 4 3 0 1 0 1 1 1 2 1 2 1 2 4 5 5 6 6 7 8 8 8 9
14 11 5 5 8 11 11 11 11 12 14 11 12 13 15 16 16 14 15 14 9 10 5 10 9 3 3 1 6 5 9 15 16 6 8 8 7 7 10 12 13 14 16 15 15 15 15 15 15 17 18 17 15 15 13 12 12 12 10 10 9 7 7 7 5 3 1 1 2 2 2 3 3 4 4 6 6 5 6 7 6 6 8 8 8 8
6 3 4 8 10 9 10 11 13 11 11 10 7 4 9 10 11 12 13 8 6 5 3 5 6 9 5 11 11 7 10 16 11 11 12 11 12 12 12 14 14 14 13 15 16 16 17 16 17 18 17 16 16 15 13 12 13 14 12 11 10 9 8 7 6 4 2 1 2 3 4 4 5 5 4 4 4 5 4 4 6 6 7 9 9 9
7 9 3 2 6 8 8 10 10 13 10 10 4 4 5 9 9 8 7 6 10 9 13 9 8 10 11 7 6 9 13 9 12 14 13 13 14 15 15 15 15 14 14 13 15 16 16 16 16 16 16 15 14 13 13 12 12 13 14 13 12 9 10 10 8 6 4 4 3 3 4 4 5 5 6 6 5 3 4 3 4 5 5 7 8 9
2 5 5 5 6 7 9 10 3 3 8 3 4 6 5 4 8 6 6 7 7 9 9 4 9 6 6 4 6 8 6 5 12 14 13 14 13 14 15 14 15 15 15 15 14 15 16 16 16 15 15 15 15 15 14 12 12 11 12 13 12 12 12 11 11 8 6 5 4 4 3 4 4 5 5 6 6 4 3 5 4 5 5 6 7 8
1 2 1 3 4 7 7 3 5 1 8 3 2 2 1 2 4 6 7 8 8 7 12 5 9 5 11 4 4 4 3 6 10 11 14 12 14 12 12 13 14 12 12 14 15 14 15 14 14 14 13 16 14 12 12 11 11 12 12 14 14 14 12 12 12 11 9 7 5 4 4 5 5 5 6 6 6 6 5 5 5 5 5 5 6 8
1 2 3 3 6 6 2 4 3 4 3 1 3 7 8 7 6 6 5 6 5 10 11 12 15 9 8 4 4 3 5 5 9 9 11 12 12 12 12 13 11 10 11 12 12 14 14 14 14 14 16 14 14 13 13 12 12 12 13 13 15 15 13 13 13 12 11 9 7 6 6 6 6 6 6 6 6 6 7 7 6 5 5 5 5 6
6 4 3 5 10 1 2 2 2 1 2 2 4 4 7 9 7 4 3 3 4 9 4 5 8 11 5 1 4 4 9 8 7 12 11 12 12 11 11 10 11 11 11 12 12 13 13 14 15 15 16 16 15 14 14 12 11 12 12 12 15 17 16 13 12 12 11 9 9 8 7 7 7 7 6 7 7 7 8 8 7 6 5 5 5 5
8 11 7 5 1 7 5 5 3 3 4 4 4 4 4 5 3 7 3 4 7 7 3 2 3 6 11 11 9 9 13 9 11 10 11 12 12 11 10 10 8 9 11 11 10 10 11 12 12 14 14 13 14 12 13 13 12 11 12 14 16 17 16 14 13 12 12 10 10 9 8 8 7 7 6 6 6 7 7 7 7 7 7 5 5 5
7 3 7 7 2 6 6 4 2 3 5 5 5 3 4 6 7 10 8 7 10 1 4 2 3 7 10 10 13 14 11 13 13 14 12 13 13 10 9 8 9 9 10 10 9 8 9 9 9 10 10 11 11 13 12 12 12 10 10 13 16 15 14 14 14 14 13 11 10 10 9 8 7 7 7 6 6 7 7 6 7 7 7 7 8 7
6 7 6 9 3 8 10 8 1 3 6 5 3 4 3 4 4 8 6 10 8 9 10 3 3 3 1 4 16 16 14 14 12 13 13 12 11 10 9 9 10 10 9 8 9 9 9 9 10 9 9 9 10 12 12 11 12 12 12 15 17 16 16 15 14 12 13 10 10 10 9 8 7 7 7 6 6 6 7 7 7 7 7 7 8 8
10 10 3 6 4 12 8 4 5 4 2 1 1 3 2 6 2 6 4 7 8 12 11 4 5 5 7 8 11 12 15 13 12 12 12 12 10 9 9 9 9 9 8 8 8 8 8 8 8 8 8 8 8 10 10 10 9 9 10 13 14 13 12 13 13 12 12 11 10 11 10 9 7 6 5 5 6 7 7 8 7 7 7 7 8 8
3 6 5 5 4 10 10 6 4 5 4 2 3 5 4 2 5 3 4 6 8 7 14 8 10 13 8 13 13 14 15 12 11 11 10 10 10 10 9 8 7 7 7 6 7 6 7 7 6 5 6 7 8 7 7 7 8 10 10 11 12 12 11 11 11 10 10 10 10 10 9 9 8 8 8 7 8 8 7 7 8 8 8 8 8 7
9 12 2 8 5 9 2 4 0 2 3 6 3 2 4 1 3 3 5 1 5 9 9 6 14 12 8 8 9 12 14 10 10 10 9 9 7 9 7 6 5 5 5 5 6 5 5 5 6 6 6 7 6 6 7 9 9 9 10 10 10 10 10 9 8 8 8 8 7 8 9 9 10 10 10 10 10 9 8 8 7 7 7 8 8 8
3 10 9 11 12 3 2 3 4 4 3 3 3 2 1 4 4 7 3 8 8 12 8 8 13 13 12 11 5 9 12 10 9 8 7 6 7 7 6 6 5 4 4 4 3 3 3 3 4 5 5 5 5 5 6 7 8 9 9 9 8 8 8 8 7 7 6 7 5 5 7 8 8 9 9 9 10 10 9 10 9 9 9 9 9 8
2 8 8 5 1 5 4 4 8 6 3 3 2 2 1 2 8 8 5 2 5 12 9 7 8 12 8 4 2 9 10 11 10 8 7 7 6 6 5 4 3 2 1 1 1 1 1 0 2 3 4 5 6 6 5 6 5 6 6 6 5 5 6 7 8 7 6 6 5 6 7 10 10 12 11 11 11 9 9 9 9 10 9 9 9 8
5 6 12 1 3 1 6 6 8 9 5 4 5 8 4 4 2 3 1 4 7 12 12 12 12 9 3 3 2 8 9 9 9 8 6 6 6 5 5 3 3 2 2 1 1 0 1 2 2 3 3 3 3 3 4 4 5 4 3 4 4 5 5 5 4 4 4 5 8 10 13 12 12 13 11 12 11 10 11 10 9 9 9 8 8 7
4 6 13 11 8 8 9 2 6 6 8 7 6 10 11 9 7 7 10 7 5 9 11 12 15 5 3 4 5 7 7 8 8 8 7 6 5 5 3 3 2 2 1 1 2 1 1 1 2 2 2 2 3 3 4 4 4 5 5 5 5 5 6 6 7 8 9 9 10 11 10 10 9 9 8 8 8 8 9 9 9 10 10 9 9 8
2 2 4 8 12 14 14 4 4 2 2 3 4 4 5 3 3 4 13 8 3 4 5 7 10 3 4 4 6 6 6 7 6 5 6 5 5 5 4 4 3 3 3 2 2 2 3 3 3 2 3 3 3 4 4 4 5 5 6 5 5 6 8 8 8 8 8 8 9 9 8 8 7 7 8 9 8 8 8 8 8 8 9 10 10 10
5 2 5 10 10 12 14 10 5 4 4 4 6 1 2 9 5 6 6 2 3 4 7 5 8 1 3 7 6 6 5 4 4 5 4 3 2 3 2 3 3 3 4 5 5 5 5 5 5 5 5 6 6 5 6 5 5 5 6 7 8 9 10 9 9 8 9 8 8 8 7 7 7 7 7 7 7 8 8 7 7 7 7 8 8 9
2 3 2 3 5 4 8 6 4 4 2 1 1 2 1 4 3 3 2 1 5 6 7 7 9 3 2 1 2 2 1 2 2 2 3 1 2 2 1 1 1 2 2 3 4 4 4 2 3 5 5 6 7 7 8 8 8 8 8 9 10 10 10 10 9 10 10 9 10 9 8 8 7 7 7 7 6 7 8 8 7 6 7 7 7 8
3 4 4 7 7 7 6 7 8 2 1 1 1 3 5 6 7 3 7 4 9 4 8 6 6 2 4 6 6 6 5 4 3 2 2 3 2 2 2 2 1 2 2 4 4 4 5 5 4 4 4 4 4 5 7 8 9 9 8 8 8 8 8 8 8 8 9 8 9 9 10 9 8 8 8 8 8 8 8 8 8 8 7 7 8 8
2 3 7 10 12 13 12 11 11 9 6 8 6 5 6 8 6 6 5 9 14 8 8 7 11 11 9 9 9 7 5 8 7 7 7 6 5 3 2 2 2 2 3 4 5 4 5 5 6 6 5 6 6 6 6 6 7 7 7 8 8 7 6 6 6 7 7 8 8 8 9 9 9 9 9 8 8 8 8 8 8 9 9 9 9 9
2 7 9 11 13 15 15 15 16 15 17 16 16 16 16 16 13 11 13 17 8 12 19 8 13 11 10 9 11 5 10 7 5 5 5 5 5 4 3 3 5 5 4 4 4 5 5 6 6 6 7 8 7 7 7 6 6 6 6 6 6 6 6 5 6 6 6 7 7 7 8 8 8 8 8 8 8 8 9 8 8 9 9 9 10 10
3 9 8 13 11 16 16 17 16 16 14 14 15 15 17 17 17 17 16 18 14 13 16 11 16 17 17 16 13 16 4 8 5 1 2 1 1 3 3 4 5 6 6 6 6 6 5 5 5 5 5 5 6 7 7 6 7 6 5 5 5 5 5 5 5 6 6 6 7 7 7 7 7 7 8 8 8 9 9 9 9 9 9 9 9 9
4 8 11 7 9 11 14 16 15 15 13 13 12 12 15 18 21 20 19 17 18 19 19 20 21 25 21 21 14 2 5 4 3 2 1 2 3 1 2 4 5 6 7 8 8 7 7 7 6 7 7 7 8 7 7 7 7 7 7 7 7 7 7 6 6 7 8 8 8 8 8 8 9 9 9 9 10 9 9 9 9 9 9 10 11 10
4 4 7 3 6 9 11 12 11 10 11 14 15 18 20 21 20 18 19 20 20 20 22 24 24 24 17 2 9 4 4 3 3 2 1 2 1 2 3 5 5 6 7 7 7 8 9 8 8 8 8 8 8 9 9 10 10 8 8 7 8 8 7 7 8 8 8 9 9 9 10 10 11 11 12 12 11 9 10 11 8 8 9 9 9 11
3 4 5 2 7 8 8 9 9 11 8 8 11 16 20 19 18 14 14 11 13 17 19 18 16 14 3 5 6 6 4 4 2 2 3 2 2 4 5 6 6 6 7 8 8 9 9 10 9 9 9 9 10 10 10 9 8 8 9 9 9 8 7 7 8 9 10 10 10 10 11 11 12 13 13 12 11 11 11 11 10 11 11 11 11 10
2 4 4 4 9 7 9 5 6 1 6 12 15 20 19 18 18 18 17 18 20 18 16 14 12 3 5 4 4 4 4 3 3 4 3 3 2 4 6 7 7 7 7 8 9 10 10 11 11 11 11 10 10 11 11 11 10 11 10 10 10 9 9 10 10 11 12 12 13 14 14 14 13 12 12 12 13 11 11 12 13 13 13 13 12 10
4 6 9 6 7 4 9 7 1 4 13 15 2 4 6 10 10 13 14 16 17 15 4 2 2 3 3 5 3 1 4 3 6 5 5 4 4 4 7 6 7 7 7 8 9 10 10 10 10 10 11 11 11 10 11 10 10 10 9 8 9 10 10 11 12 13 14 14 14 15 14 14 12 13 14 14 14 13 14 14 15 15 13 12 12 12
7 8 10 7 10 12 8 5 10 15 15 1 3 2 4 6 8 14 16 16 14 7 0 3 5 4 6 4 2 3 4 6 8 8 8 7 5 6 6 6 6 7 8 9 10 10 10 9 8 9 9 9 9 9 9 9 9 9 9 9 10 11 13 13 13 12 14 14 15 13 12 13 14 14 13 12 12 12 13 14 14 14 14 14 14 14
12 11 9 9 9 9 9 10 10 10 2 1 3 2 3 3 8 9 13 13 14 12 10 8 3 5 4 2 3 3 5 8 8 9 10 9 6 4 5 5 6 7 8 9 10 9 8 8 8 9 9 9 9 9 9 9 9 10 10 11 11 11 12 12 12 14 14 13 14 13 14 14 13 13 13 13 12 13 13 13 14 15 14 14 13 13
14 11 9 11 8 12 10 13 18 9 13 11 12 10 8 7 6 7 7 6 8 2 3 4 8 6 3 2 3 4 6 7 7 7 7 3 3 1 4 6 6 7 8 8 8 8 8 7 8 10 10 10 10 10 10 10 10 10 11 11 10 12 13 12 12 13 14 13 14 14 14 14 14 13 13 12 14 14 13 14 14 14 13 15 15 15
13 13 8 10 8 10 12 11 12 12 12 5 3 0 6 4 7 5 5 4 5 3 4 5 7 3 3 3 3 5 6 6 7 6 4 5 3 1 3 5 6 7 6 6 7 7 8 8 9 10 9 11 11 11 10 11 11 11 11 12 12 12 12 11 14 14 14 14 13 14 15 15 15 15 15 15 16 15 16 15 15 14 14 14 16 16
7 11 11 11 9 7 12 12 11 9 5 5 2 6 4 6 6 6 6 9 1 4 3 6 4 1 2 5 5 6 4 6 8 8 6 5 4 3 5 5 5 5 6 7 8 9 10 10 10 10 10 10 12 11 12 12 12 11 11 12 12 12 12 13 14 14 15 16 16 16 14 15 15 14 15 16 14 15 16 16 15 16 16 15 15 16
5 7 8 11 12 11 10 11 13 4 7 0 3 3 5 4 5 4 10 8 3 0 2 3 1 1 2 4 5 3 4 7 8 9 8 9 5 5 3 4 5 6 7 8 7 8 9 10 10 10 11 11 11 12 13 12 12 11 12 14 13 13 13 13 13 14 15 15 15 14 15 13 15 16 16 17 17 18 16 17 14 15 14 16 15 17
4 4 9 12 11 12 14 11 8 8 3 3 3 2 5 3 2 4 12 2 4 2 1 1 3 3 4 4 4 5 7 8 9 11 11 8 6 5 3 3 4 5 7 8 8 7 8 7 8 9 11 9 10 11 11 9 11 13 13 13 13 12 13 14 14 15 14 14 14 15 16 13 14 18 18 17 17 18 20 18 17 19 18 19 18 18
2 3 4 9 11 11 11 12 11 10 4 1 4 4 7 2 6 9 2 5 8 4 6 8 7 7 6 7 7 7 8 10 11 11 10 8 4 4 4 4 5 7 6 7 7 8 7 7 9 10 9 9 10 11 9 10 11 12 12 12 12 13 14 14 15 14 14 14 14 14 14 14 12 13 14 15 16 18 19 18 18 19 20 19 19 21
5 4 6 10 6 7 7 9 9 10 1 5 7 6 6 6 5 4 3 5 7 5 4 6 8 7 6 7 8 9 10 11 11 10 8 6 4 5 5 6 7 8 8 8 7 7 7 9 10 10 11 10 11 10 10 10 13 12 12 12 14 14 14 15 14 14 15 16 16 15 16 16 17 16 13 14 15 17 18 17 18 20 20 21 21 22
6 8 7 9 6 6 7 8 5 4 7 4 9 4 4 7 8 4 1 5 4 3 5 6 6 6 7 8 8 9 10 11 9 8 7 5 5 5 6 6 7 7 7 6 6 7 6 8 9 11 11 11 10 9 8 9 11 12 13 15 14 14 14 15 15 16 17 17 17 18 16 16 15 15 14 15 16 16 17 17 16 17 16 17 18 19
8 11 7 10 4 8 5 8 7 6 5 2 6 7 8 11 10 8 7 8 8 8 6 4 6 6 7 7 8 9 9 8 8 5 5 6 7 7 7 7 7 7 7 7 8 7 6 7 10 12 13 9 8 8 8 8 11 14 15 14 12 14 16 16 16 15 17 18 18 18 16 16 16 15 15 15 14 15 15 16 16 15 15 15 16 17
6 11 7 11 12 12 15 14 12 11 12 9 7 7 12 14 13 11 11 9 8 8 5 6 6 5 5 5 6 7 8 7 7 6 7 7 7 7 7 6 6 6 7 7 6 7 7 9 9 10 12 12 7 9 7 7 8 13 14 14 15 15 15 15 15 20 21 19 18 17 17 19 17 16 15 15 14 14 14 15 15 14 14 14 15 16
12 14 10 10 6 8 8 8 9 14 15 13 14 14 11 10 11 9 9 9 9 4 3 3 4 4 4 4 6 7 6 5 6 7 6 7 7 7 7 6 6 5 6 6 7 8 8 8 9 10 11 14 10 8 8 7 8 11 12 12 14 14 14 16 19 18 18 19 18 18 16 18 16 15 15 14 14 13 13 13 13 14 15 14 15 16
9 13 12 11 11 12 12 14 16 15 15 15 13 12 13 13 12 12 6 1 1 3 2 3 3 3 4 4 6 6 7 6 7 7 6 6 6 6 6 5 5 6 6 6 8 6 6 8 10 12 13 13 12 10 10 10 10 11 11 12 12 13 15 16 16 20 19 20 18 17 16 16 20 20 16 15 13 14 13 13 13 14 14 14 14 15
6 3 4 3 8 10 13 16 17 18 18 17 17 15 12 11 10 9 5 4 5 4 5 4 5 5 5 6 4 5 6 7 6 6 6 6 6 6 6 6 7 7 7 8 7 6 7 9 11 12 13 14 13 12 11 10 10 10 12 13 13 15 16 18 20 18 18 18 17 17 16 16 16 15 15 15 15 13 13 14 14 14 15 14 13 15
10 14 7 5 10 12 11 11 12 10 10 11 11 12 11 7 6 4 5 4 5 6 6 6 6 4 3 2 3 3 4 4 4 5 6 5 6 6 7 7 7 7 7 6 7 7 9 10 11 13 13 14 12 11 11 13 13 11 12 13 13 14 16 18 19 19 18 16 16 16 16 15 14 15 15 15 15 16 16 18 25 21 17 18 23 30
13 16 11 12 11 11 12 14 13 13 14 14 14 5 5 4 4 5 6 7 6 6 5 6 6 6 5 4 3 2 3 4 5 5 6 5 6 6 7 8 9 9 9 8 9 9 9 11 11 12 13 12 11 11 13 13 13 12 13 13 14 15 15 15 17 17 16 16 15 17 16 16 16 15 14 14 16 15 16 17 15 22 29 29 29 30
Wind_Direction
172 210 201 207 228 239 247 237 243 259 273 283 285 278 275 277 278 278 274 282 287 293 276 284 289 294 297 293 285 276 273 273 272 282 286 278 273 272 274 290 10 60 5 340 336 23 44 37 23 16 18 16 34 33 24 26 23 0 256 173 194 173 185 183 186 190 193 199 204 212 216 220 213 214 215 214 227 230 230 214 199 188 184 181 181 184
217 231 228 232 246 260 267 291 311 291 280 281 282 280 278 274 279 278 285 292 291 288 285 287 289 292 299 293 278 270 270 274 277 276 270 268 267 278 331 70 41 334 290 311 75 72 64 53 44 41 38 30 30 25 25 24 17 17 9 349 73 159 182 200 197 193 197 205 206 208 215 219 222 212 209 215 207 216 222 217 205 195 184 181 183 186
215 234 239 241 251 259 267 285 277 284 281 276 272 276 280 277 284 284 280 285 312 339 285 298 298 297 286 277 278 281 276 259 255 250 255 257 287 3 42 332 330 2 61 84 74 62 61 56 45 40 37 37 33 26 26 21 24 31 25 32 17 67 148 193 215 215 218 222 226 226 231 220 221 222 225 221 220 212 215 210 203 197 190 188 187 186
253 242 237 241 254 261 262 259 265 269 264 261 261 259 262 286 289 296 290 146 205 241 299 304 298 289 271 266 269 287 239 236 248 253 252 282 30 4 332 8 33 78 81 68 53 48 48 48 45 41 37 32 28 25 22 20 22 27 27 29 27 36 44 24 202 244 279 286 281 265 288 319 255 267 215 214 214 209 201 207 196 194 196 192 191 187
254 287 54 247 245 251 260 265 266 264 264 251 250 259 277 276 276 289 303 307 306 295 282 302 281 281 287 148 141 194 225 252 263 260 286 81 94 100 79 62 52 67 68 57 49 40 36 38 38 39 37 32 30 23 20 17 20 22 25 28 35 45 45 32 32 20 295 342 159 145 84 47 315 314 307 229 229 218 216 220 211 212 203 201 199 195
260 263 112 261 248 259 259 261 253 254 265 271 266 266 267 273 289 295 304 314 307 294 85 338 327 303 139 237 339 300 307 288 272 268 112 100 100 78 76 82 77 64 54 53 45 40 35 34 34 33 32 31 27 21 15 14 20 24 26 27 34 51 55 38 38 27 320 318 282 260 255 261 250 257 242 242 243 228 222 223 225 218 208 207 210 206
301 95 210 247 258 254 251 254 254 253 264 276 282 330 282 293 298 297 299 309 291 299 83 54 314 289 255 278 275 283 267 255 277 48 59 59 68 75 67 56 51 51 50 44 42 39 37 32 33 34 33 30 27 19 12 13 18 23 25 26 33 40 49 48 29 34 6 330 307 294 288 295 296 295 285 276 264 258 248 229 220 216 205 209 210 211
191 233 197 247 238 244 245 250 245 236 255 263 38 339 329 300 298 307 309 283 273 284 279 256 218 269 292 281 254 212 245 279 63 71 68 69 64 61 63 58 55 50 46 46 41 37 35 34 33 34 32 31 29 22 16 13 16 21 26 29 31 38 43 38 26 29 21 348 353 331 309 300 296 295 298 305 307 279 261 247 223 216 210 204 211 217
222 175 213 207 212 233 242 257 8 239 237 304 48 14 337 327 303 301 287 280 283 300 294 188 208 253 259 300 147 247 248 75 70 78 80 64 48 51 63 64 54 46 46 45 44 39 34 29 30 31 32 30 29 27 20 13 12 19 28 30 33 40 42 31 27 19 16 7 347 339 329 318 312 308 304 306 300 292 268 246 226 218 214 204 207 214
99 42 59 282 256 257 268 339 15 296 260 68 334 4 275 254 241 260 271 283 287 290 271 219 191 254 288 299 221 126 217 115 100 96 85 74 73 56 52 55 57 51 47 45 42 40 36 31 29 29 32 32 28 25 21 17 17 23 26 27 30 36 40 33 26 17 12 6 353 342 340 325 316 319 317 313 309 301 290 267 247 233 224 218 205 208
309 139 46 277 242 261 53 72 33 21 9 348 314 299 278 257 252 236 244 269 282 257 266 244 198 226 289 326 301 128 49 82 117 100 95 89 73 64 54 49 48 52 47 41 41 37 35 32 30 26 32 29 28 26 22 18 18 22 26 25 32 34 37 33 28 20 12 9 359 354 345 336 325 322 315 309 307 308 300 288 279 258 246 231 222 207
216 190 196 223 239 222 251 176 86 109 38 328 283 300 309 284 226 245 247 210 249 271 21 57 184 223 244 113 72 97 84 61 77 109 100 83 76 63 55 47 45 42 45 44 38 31 28 25 24 24 26 24 24 23 22 18 17 23 25 26 34 34 33 31 26 22 16 10 4 357 351 341 336 330 324 318 314 312 306 299 290 286 271 252 237 221
219 215 217 174 83 220 192 254 168 155 166 217 247 255 275 295 286 270 185 219 216 255 121 66 60 246 239 245 287 287 73 70 68 93 108 97 84 76 66 58 51 49 50 45 40 36 32 31 24 23 22 21 22 21 20 20 18 19 22 26 34 34 30 29 28 25 18 16 9 2 355 352 345 340 334 323 320 316 309 307 303 298 290 281 259 238
300 100 196 186 140 191 204 214 182 224 175 205 214 243 266 278 268 271 279 281 277 116 106 79 95 268 273 275 242 248 82 94 93 85 87 94 92 88 84 73 63 54 53 53 43 37 36 33 31 27 23 19 18 19 20 19 20 16 20 27 35 35 29 26 26 24 20 17 10 2 359 352 351 349 342 338 335 330 321 316 312 309 301 295 288 278
289 272 198 167 180 153 194 224 278 344 158 204 274 245 261 274 279 288 285 277 294 309 324 204 304 248 340 354 72 84 95 87 88 91 92 89 90 90 85 77 70 63 59 55 55 42 35 30 26 26 22 20 20 19 16 13 11 12 18 24 27 24 20 21 22 22 22 17 14 10 1 357 355 351 345 342 340 328 324 322 318 313 307 300 297 294
228 248 229 173 77 158 181 202 107 104 25 114 46 49 61 237 112 243 271 287 298 305 297 246 213 301 289 68 106 105 94 96 95 92 94 91 90 85 76 64 62 60 55 53 52 48 42 36 27 18 18 20 21 20 15 13 12 16 22 28 31 30 23 19 16 17 14 12 11 11 6 2 -0 357 350 344 343 335 329 326 320 312 307 304 302 299
209 255 173 108 155 190 194 147 205 161 238 159 151 202 208 55 153 262 264 231 275 276 258 253 267 263 259 249 164 110 98 94 90 86 82 82 85 82 74 68 62 60 56 48 47 42 35 34 28 20 21 22 21 15 11 11 15 21 23 26 27 25 22 19 15 13 10 6 6 7 7 4 3 7 3 357 351 343 337 330 324 318 314 306 299 297
274 281 126 179 228 229 44 156 111 213 67 105 204 233 51 37 15 231 261 187 210 239 263 252 261 266 264 286 102 109 103 97 89 84 82 82 79 77 77 77 70 62 57 48 46 41 31 25 22 22 25 23 13 1 4 15 17 23 28 27 28 24 19 14 11 8 10 4 357 355 0 3 9 9 6 4 358 350 343 338 329 321 314 312 310 305
263 274 261 209 234 99 102 141 250 190 243 232 236 25 253 232 239 202 225 241 242 251 268 235 273 264 252 247 175 139 119 119 109 105 101 93 89 92 93 83 77 64 55 51 40 31 19 13 16 16 5 12 10 4 12 17 19 24 30 26 25 24 17 14 11 4 6 7 2 352 356 3 11 17 17 9 5 355 350 344 336 328 320 313 308 303
158 269 275 69 304 125 138 166 235 204 85 97 59 243 100 327 253 258 219 273 252 265 267 250 240 266 249 309 324 110 118 127 128 124 113 114 117 120 127 123 125 130 131 152 142 191 215 334 16 358 360 356 2 2 3 11 16 26 26 23 20 17 20 17 13 4 359 356 356 356 3 10 12 13 11 6 5 2 355 349 339 329 324 320 317 310
262 200 273 270 1 244 229 177 233 244 223 169 211 230 203 221 7 296 326 221 230 259 251 268 255 250 262 24 73 115 115 118 123 124 120 114 112 106 104 114 121 118 130 142 165 11 358 350 347 340 329 326 322 337 350 357 9 15 18 18 10 18 17 18 12 357 354 354 3 6 11 11 10 7 4 358 358 356 351 349 344 337 329 317 311 310
242 218 251 269 251 217 243 278 330 295 279 262 216 222 217 221 206 223 245 211 230 233 251 251 254 224 79 338 61 95 93 96 97 102 102 105 101 101 92 99 90 75 63 50 24 35 0 322 319 319 293 302 342 352 358 3 7 4 5 4 4 7 13 7 6 10 4 7 7 8 7 6 3 3 356 353 347 352 347 346 344 341 334 329 322 321
359 1 284 249 251 268 281 309 122 87 59 37 0 300 27 349 343 232 255 241 275 247 294 269 289 243 36 6 66 67 69 74 69 73 91 93 89 78 72 59 55 56 40 24 25 18 19 8 358 347 354 13 13 11 8 9 9 2 359 0 -0 5 7 10 4 6 3 359 1 360 2 1 359 357 354 350 348 345 338 337 332 335 337 332 327 323
100 232 250 253 261 279 284 278 106 114 111 253 214 202 258 261 261 264 273 20 275 290 271 246 240 237 8 22 40 61 63 48 63 61 60 85 87 87 74 39 23 9 6 15 15 14 21 16 7 8 8 11 13 12 8 6 4 1 359 1 359 4 3 5 3 -0 358 356 353 352 351 354 348 351 346 344 338 336 332 333 327 327 328 323 325 324
264 245 256 318 302 291 276 231 126 53 65 37 10 66 94 279 264 243 239 180 257 185 237 276 266 283 64 317 13 96 169 208 132 102 69 37 111 113 102 75 12 319 330 344 356 355 350 0 359 8 4 2 4 357 355 359 -0 359 0 -0 1 358 356 354 354 353 351 350 345 343 344 341 343 340 335 328 323 324 324 323 324 324 322 318 316 316
266 281 312 286 280 270 255 257 271 279 87 32 192 219 219 228 237 310 270 248 262 163 221 243 267 152 196 228 226 223 218 204 195 211 158 215 218 181 198 212 220 279 334 338 352 351 351 352 3 3 4 358 356 353 348 352 351 352 352 354 351 352 347 344 346 342 340 339 337 334 333 333 334 335 331 328 326 324 321 319 317 317 313 315 313 306
269 272 253 255 260 261 264 277 296 313 272 278 274 273 270 248 233 233 267 260 257 283 273 245 264 275 272 255 224 206 205 207 208 197 199 190 189 192 230 247 264 298 321 333 335 334 334 338 346 352 339 343 336 340 339 336 339 339 341 338 341 341 337 330 329 328 326 323 321 319 320 320 323 323 322 318 318 317 317 317 318 317 314 311 310 308
255 268 253 255 250 258 268 275 280 280 277 276 278 273 272 269 255 247 246 257 275 288 270 249 251 260 266 284 296 226 197 224 219 207 192 187 184 197 208 235 255 268 279 289 294 304 314 318 322 330 331 330 332 326 327 326 320 320 318 319 317 321 320 313 308 305 303 308 308 307 308 310 306 304 301 303 304 305 306 306 311 312 309 310 308 306
270 267 268 270 265 265 265 268 269 272 273 279 274 274 272 272 269 259 255 264 273 258 269 287 286 283 281 285 286 290 260 190 197 174 190 215 207 220 233 248 265 267 261 258 261 265 269 271 279 286 296 297 304 306 308 310 306 302 296 287 288 287 290 295 297 296 298 295 295 297 297 293 296 294 288 287 289 292 293 298 300 302 299 298 295 295
259 256 260 276 283 281 277 274 273 276 283 284 274 271 269 264 262 264 272 275 266 266 272 274 274 272 280 282 292 87 117 128 127 130 185 232 235 235 270 275 273 269 262 260 265 269 269 265 265 267 270 275 275 282 285 289 288 288 287 287 286 287 285 293 292 293 298 298 299 302 303 301 298 298 294 293 290 283 283 283 284 286 290 293 293 292
247 266 91 11 288 274 268 271 276 276 277 271 270 268 263 262 266 273 277 269 272 270 267 269 270 273 276 23 97 86 97 97 107 219 255 282 277 306 305 311 314 320 322 315 295 281 273 274 276 274 275 278 283 284 291 291 288 282 273 270 274 277 279 280 286 285 286 290 293 298 300 302 301 302 300 297 297 293 295 288 281 280 278 280 282 285
296 266 339 346 292 269 262 269 280 284 282 274 269 260 256 260 269 263 258 266 265 265 267 269 267 272 56 86 95 122 97 93 13 350 321 337 359 345 324 312 313 318 322 318 314 310 303 291 284 281 280 287 294 299 304 307 307 306 302 298 297 297 301 299 296 295 292 292 294 292 293 293 293 294 293 293 293 293 292 290 288 289 289 289 288 284
243 272 273 281 278 251 262 279 295 323 291 269 238 236 248 255 253 258 258 258 255 266 269 258 271 19 102 94 97 94 86 357 351 323 344 324 328 325 314 308 315 324 325 332 333 331 324 318 308 299 294 298 318 333 334 330 325 316 314 312 312 317 316 311 307 302 298 296 294 293 291 293 293 290 288 288 290 287 287 285 286 288 288 286 284 286
238 240 260 259 262 279 276 284 266 273 263 253 327 115 207 247 259 266 264 264 267 265 289 14 113 128 111 82 83 27 16 339 336 314 312 295 292 296 292 300 311 320 330 334 337 336 336 336 341 345 356 360 354 344 331 326 320 315 320 326 326 319 309 301 295 291 289 288 287 288 287 287 288 286 285 287 288 290 290 290 289 289 287 286 284 282
245 244 255 256 258 267 277 284 269 244 241 357 91 284 246 260 251 252 260 263 273 280 140 244 146 145 133 77 72 355 335 324 314 314 297 287 267 270 287 306 319 330 335 333 333 332 334 339 346 342 336 337 336 328 326 325 317 316 314 312 307 301 298 297 295 293 291 289 288 289 290 290 287 284 282 280 279 278 277 275 278 280 282 283 282 282
250 249 256 250 251 267 253 243 245 245 151 255 207 144 191 242 242 267 267 260 256 254 256 256 159 147 136 65 22 344 333 314 306 293 286 271 265 266 302 315 327 333 326 328 328 331 348 353 345 338 330 325 324 326 327 323 328 326 321 320 313 310 309 307 305 301 298 297 297 298 300 298 293 290 290 287 285 282 280 280 280 282 279 274 269 266
238 250 248 261 240 248 242 240 245 299 292 266 258 254 211 224 253 252 286 306 88 253 212 190 154 142 83 10 347 336 314 308 295 292 288 334 207 311 336 329 327 324 323 329 344 347 348 343 337 331 326 326 330 338 339 345 348 339 329 327 325 321 313 310 309 307 305 304 306 309 308 307 307 308 305 301 296 292 291 290 289 285 284 279 274 271
234 232 239 248 245 240 252 258 265 263 262 267 103 73 36 73 55 5 347 282 267 214 231 186 166 122 21 334 322 320 321 302 301 301 353 51 51 6 341 315 320 321 338 350 344 336 329 332 330 328 332 332 339 344 356 358 350 340 330 322 318 314 312 311 306 306 305 303 309 313 312 307 304 301 302 305 302 300 299 297 292 287 286 280 280 276
244 240 237 234 253 249 245 249 247 246 257 102 265 86 73 83 33 2 303 286 178 148 121 107 85 71 339 310 314 312 321 304 295 306 325 22 339 337 314 317 322 342 348 345 337 331 330 330 330 332 341 348 341 350 1 351 344 337 329 324 322 317 312 310 307 308 308 308 308 306 303 303 305 304 300 298 300 303 301 297 294 291 287 282 280 277
192 216 213 233 238 235 244 244 247 252 258 32 100 84 95 61 36 346 294 291 100 212 105 81 33 326 292 289 294 287 276 287 291 301 326 316 326 313 339 338 340 336 336 329 332 333 328 325 334 339 348 346 344 358 353 344 340 336 328 319 315 311 309 308 308 307 306 305 308 312 310 311 313 315 318 316 311 306 298 293 289 286 285 284 282 281
175 223 209 223 229 237 238 250 263 264 253 187 247 241 127 103 76 279 254 295 183 203 195 0 258 271 269 264 254 268 258 272 288 296 300 305 306 313 13 13 336 331 324 328 334 347 329 339 341 335 339 341 349 353 345 345 336 321 318 314 312 309 307 310 311 309 310 310 308 306 305 309 308 304 301 300 299 298 295 294 293 293 291 288 284 281
255 195 247 229 231 233 237 247 246 260 260 268 240 208 142 190 248 249 320 107 156 201 209 205 229 243 246 246 249 257 274 280 288 289 285 292 317 334 329 332 326 318 322 331 347 349 346 340 331 328 336 345 350 345 341 336 321 316 316 311 306 306 309 312 311 310 307 304 302 300 298 296 295 296 297 298 298 295 292 291 293 292 291 286 282 279
222 180 216 227 233 236 236 252 258 260 106 185 134 71 220 221 252 286 131 171 163 211 244 240 238 247 235 256 258 269 278 282 281 283 287 296 320 315 322 323 320 319 324 334 338 1 9 335 328 329 334 338 338 334 330 326 316 312 312 305 305 313 315 314 311 308 306 303 300 298 297 295 294 294 295 293 293 292 291 291 291 288 286 285 284 282
253 262 249 249 223 231 228 230 222 251 260 189 174 214 224 225 254 293 319 287 269 303 287 282 262 251 237 240 260 270 275 281 277 271 274 284 297 310 307 311 315 318 322 333 344 349 4 332 326 321 323 326 323 324 326 324 310 309 309 304 311 315 313 311 310 310 307 305 302 301 299 298 296 294 292 289 290 288 284 286 289 289 287 285 283 280
194 226 229 260 239 253 233 260 273 309 320 262 203 244 257 271 282 286 288 283 291 289 290 259 267 271 226 237 253 264 271 265 271 274 280 289 297 300 306 310 319 319 327 333 339 354 2 340 324 318 311 316 318 318 319 314 308 303 298 300 313 310 311 309 307 305 303 302 300 298 296 295 293 292 290 287 285 284 285 285 287 289 289 287 285 282
244 260 247 256 258 261 273 280 285 278 262 252 233 236 258 271 277 276 268 272 266 278 276 265 277 274 225 205 236 246 244 255 265 275 283 290 293 296 300 304 311 322 326 338 331 354 348 326 313 307 304 310 318 308 309 304 301 298 295 306 311 310 306 304 305 305 304 304 300 297 299 296 294 290 284 284 281 277 277 280 283 284 286 286 283 282
248 246 248 244 247 270 258 249 253 256 259 263 267 263 254 251 263 268 271 268 275 249 195 220 250 255 224 192 220 242 249 248 261 270 278 282 285 290 298 302 310 323 329 327 334 348 331 326 312 310 310 305 309 305 299 294 296 295 297 298 303 305 305 304 301 300 302 299 299 297 296 294 294 294 291 286 283 278 277 277 278 281 283 283 283 283
248 240 251 238 243 239 260 265 261 259 266 267 268 271 268 263 258 259 260 207 146 129 214 194 156 205 180 214 223 236 247 252 258 266 274 278 285 295 299 303 313 320 319 331 327 331 318 313 309 307 308 306 309 311 307 304 300 299 301 299 303 303 303 301 300 299 298 297 296 295 295 292 291 291 290 288 285 284 281 277 275 277 275 277 278 281
264 88 233 169 240 246 249 254 263 269 268 265 262 259 256 257 260 262 154 162 158 175 173 183 195 222 207 227 223 238 252 255 260 273 280 287 288 290 301 314 319 321 321 320 316 321 315 311 302 299 299 299 305 304 302 299 298 302 303 303 304 306 306 301 299 298 296 296 296 292 291 290 290 288 289 289 286 279 278 281 280 277 275 266 268 269
250 243 221 240 253 250 242 244 245 257 264 265 253 255 254 243 243 225 139 174 189 199 186 189 199 197 223 245 243 244 248 265 272 282 282 286 289 302 311 318 321 316 309 309 312 311 301 293 291 294 297 298 301 301 303 305 302 301 302 300 303 305 299 299 299 300 298 296 294 293 292 290 290 290 288 286 285 286 281 270 274 275 276 280 274 275
231 238 234 238 235 248 245 244 245 249 261 267 282 280 130 133 173 195 202 213 204 196 187 190 200 196 198 214 207 229 256 276 287 302 296 292 298 315 320 319 314 308 307 313 311 304 297 295 295 294 293 295 300 304 305 302 299 293 298 299 298 296 290 294 300 299 297 297 295 293 293 291 290 288 286 285 286 284 285 288 279 275 277 277 281 281